Home   Weather   Calgary   Past weeks

Flag for Canada Past Weather in Calgary, Alberta, Canada — Yesterday and Last 2 Weeks

Now
9 °F

Light snow. Partly cloudy.


Feels Like: -3 °F
Forecast: 2 / 22 °F
Wind: 7 mph from South

Location: Calgary International

Current Time: Feb 26, 2017 at 11:48:27 pm

Latest Report: Feb 26, 2017 at 11:00 pm


Visibility: 2 mi

Pressure: 29.95 "Hg (26.04 "Hg at 1063m altitude)

Humidity: 85%

Dew Point: 5 °F

Location of CalgaryLocation

Past Weather in Calgary — Graph

°F

Calgary Temperature Yesterday

Maximum temperature yesterday: 27 °F (at 3:00 pm)
Minimum temperature yesterday: 14 °F (at 12:00 am)
Average temperature yesterday: 19 °F

High & Low Weather Summary for the Past Weeks

 TemperatureHumidityPressure
High61 °F (Feb 15, 2:00 pm)100% (Feb 18, 10:00 pm)30.30 "Hg (Feb 18, 10:00 pm)
Low9 °F (Feb 26, 8:00 pm)22% (Feb 12, 11:44 am)29.16 "Hg (Feb 16, 2:00 pm)
Average30 °F72%29.89 "Hg
* Reported Feb 11 10:00 pm — Feb 26 10:00 pm, Calgary, Weather by CustomWeather, © 2017

Note: Actual official high and low records may vary slightly from our data, if they occured in-between our weather recording intervals... More about our weather records

Advertising

Calgary Weather History for the Previous 24 Hours

Scroll right to see more
 ConditionsComfort  
Time TempWeatherWind HumidityBarometerVisibility
10:00 pm
Sun, Feb 26
9 °FLight snow. Partly cloudy.9 mph78%29.96 "Hg15 mi
9:00 pm9 °FLight snow. Passing clouds.9 mph78%29.97 "Hg10 mi
8:00 pm9 °FLight snow. Mostly cloudy.5 mph78%29.99 "Hg10 mi
7:00 pm10 °FLight snow. Overcast.5 mph67%29.98 "Hg10 mi
6:00 pm10 °FLight snow. Overcast.7 mph67%29.98 "Hg8 mi
5:00 pm12 °FLight mixture of precip. Mostly cloudy.8 mph67%29.99 "Hg10 mi
4:00 pm12 °FMostly cloudy.10 mph62%29.98 "Hg20 mi
3:00 pm14 °FBroken clouds.9 mph62%29.99 "Hg20 mi
2:00 pm12 °FBroken clouds.13 mph67%30.01 "Hg20 mi
1:00 pm14 °FBroken clouds.20 mph62%30.02 "Hg20 mi
12:09 pm14 °FBroken clouds.20 mph67%30.03 "Hg20 mi
11:19 am12 °FLight snow. More clouds than sun.21 mph79%30.04 "Hg4 mi
11:00 am14 °FLight snow. Mostly cloudy.17 mph73%30.03 "Hg2 mi
10:46 am14 °FLight snow. Mostly cloudy.15 mph79%30.03 "Hg1 mi
10:26 am14 °FLight snow. Mostly cloudy.17 mph79%30.02 "Hg2 mi
10:12 am14 °FLight snow. Mostly cloudy.13 mph79%30.02 "Hg1 mi
10:00 am14 °FSnow. Mostly cloudy.8 mph85%30.02 "Hg1 mi
9:56 am14 °FSnow. Mostly cloudy.12 mph79%30.01 "Hg1 mi
9:36 am14 °FLight snow. Mostly cloudy.10 mph85%30.01 "Hg1 mi
9:00 am14 °FLight snow. Mostly cloudy.8 mph79%30.00 "Hg3 mi
8:00 am12 °FLight snow. Mostly cloudy.6 mph79%30.00 "Hg6 mi
7:50 am14 °FLight snow. Overcast.8 mph73%29.99 "Hg5 mi
7:26 am14 °FIce fog.9 mph73%29.99 "Hg4 mi
7:00 am14 °FOvercast.9 mph73%29.98 "Hg15 mi
6:15 am14 °FPartly cloudy.12 mph79%29.98 "Hg7 mi
6:00 am14 °FLight snow. Ice fog.9 mph85%29.98 "Hg4 mi
5:30 am14 °FLight snow. Ice fog.12 mph85%29.97 "Hg5 mi
5:00 am16 °FIce fog.17 mph79%29.95 "Hg5 mi
4:00 am18 °FIce fog.13 mph79%29.93 "Hg5 mi
3:00 am18 °FIce fog.8 mph79%29.90 "Hg5 mi
2:00 am18 °FLight snow. Ice fog.12 mph79%29.89 "Hg15 mi
1:00 am19 °FIce fog.21 mph73%29.87 "Hg5 mi
12:00 am19 °FIce fog.13 mph86%29.86 "Hg5 mi
11:00 pm
Sat, Feb 25
21 °FIce fog.13 mph80%29.85 "Hg5 mi
Weather by CustomWeather, © 2017

See weather overviewHow to use our weather pages